{"data":{"norad_id":56715,"epoch":"2026-05-25T05:11:53.343168Z","epoch_age_seconds":59493,"freshness":"FRESH","line1":"1 56715U 23068F   26145.21658962  .00000083  00000+0  18370-3 0  9992","line2":"2 56715  87.9109 233.3300 0002554 106.0213 254.1199 13.16592787148703","mean_motion":13.16592787,"eccentricity":0.0002554,"inclination_deg":87.9109,"raan_deg":233.33,"arg_perigee_deg":106.0213,"mean_anomaly_deg":254.1199,"bstar":0.0001837,"rev_number":14870,"period_min":109.37322566389,"perigee_km":1195.8274214929,"apogee_km":1199.6971908585,"semimajor_km":7575.8993061757,"source":"CELESTRAK","updated_at":"2026-05-25T13:38:22.709341Z"}}